www.pogodaiklimat.ru
Время
и дата
21:53 29.12
22:53 29.12
23:53 29.12
00:53 30.12
01:53 30.12
02:53 30.12
03:53 30.12
04:53 30.12
05:53 30.12
06:53 30.12
07:53 30.12
08:53 30.12
09:53 30.12
10:53 30.12
11:53 30.12
12:53 30.12
13:53 30.12
14:53 30.12
15:53 30.12
16:53 30.12
17:53 30.12
18:53 30.12
19:53 30.12
20:53 30.12
21:53 30.12
22:53 30.12
23:53 30.12
00:53 31.12
01:53 31.12
02:53 31.12
03:53 31.12
04:53 31.12
05:53 31.12
06:53 31.12
07:53 31.12
08:53 31.12
09:53 31.12
10:53 31.12
11:53 31.12
12:53 31.12
13:53 31.12
14:42 31.12
14:49 31.12
14:53 31.12
15:20 31.12
15:39 31.12
15:51 31.12
15:52 31.12
Ветер
(напр.,м/с)
Видим. Явления Облачность Т
(С)
Тd
(С)
f
(%)
Тe
(С)
Тes
(С)
Комфортность P
(гПа)
Po
(гПа)
Тmin
(С)
Tmax
(С)
R
(мм)
R24
(мм)
S
(см)
Ю 1 16 км ясно -9.4 -15.6 61 -15 -15 1009.2 800.4
Ю 2 16 км ясно -8.9 -15.6 58 -16 -16 1007.2 799.3 -10.6 -5.0
штиль 0 16 км ясно -10.0 -15.6 64 -10 -10 1007.3 799.3
ЮЗ 2 16 км ясно -10.0 -15.6 64 -17 -17 1005.8 798.5
З 1 16 км ясно -9.4 -15.0 64 -15 -15 1005.3 798.0
СЗ 1 16 км ясно -10.0 -15.0 67 -14 -14 1006.4 798.2
штиль 0 16 км ясно -9.4 -15.0 64 -10 -10 1005.0 797.4
Ю 3 16 км ясно -7.8 -13.3 65 -16 -16 1003.7 796.9 -11.1 -7.8
ЮЗ 3 16 км ясно -5.0 -11.1 62 -12 -12 1003.1 796.9
ЮЗ 4
{6}
16 км ясно -2.8 -10.0 58 -11 -11 1003.4 797.4
З 4
{7}
16 км ясно -2.2 -10.0 55 -10 -10 1003.0 796.6
З 5
{6}
16 км ясно -1.1 -9.4 53 -9 -9 1003.0 797.2
З 6
{8}
16 км ясно 0.0 -9.4 49 -8 -8 1003.3 797.2
З 5
{8}
16 км ясно +1.1 -10.0 43 -6 -6 1003.0 797.2 -8.3 +1.1
З 6
{9}
16 км ясно +2.2 -11.1 37 -5 -5 1000.8 795.5
З 9
{13}
16 км ясно +2.2 -11.1 37 -7 -7 999.2 794.5
З 4
{7}
16 км ясно +2.8 -10.0 38 -3 -2 999.4 794.7
З 3
{5}
16 км ясно +2.8 -10.6 37 -2 -1 1000.0 795.3
З 2 16 км ясно +2.2 -11.1 37 -2 -2 1000.1 795.3
З 2 16 км ясно 0.0 -11.7 41 -5 -4 1000.8 795.5 -0.6 +3.9
штиль 0 16 км 2/0 2550 м
[Ac]
-0.6 -12.2 41 -1 -1 1001.0 796.4
штиль 0 16 км ясно -2.2 -11.7 48 -3 -3 1001.1 796.6
З 2 16 км ясно -2.2 -12.8 44 -7 -7 1000.3 796.1
штиль 0 16 км 2/0 2400 м
[Ac]
-2.8 -12.8 46 -3 -3 999.9 796.1
Ю 1 16 км 5/0 2550 м
[Ac]
-3.3 -12.2 50 -7 -7 999.9 795.8
Ю 2 16 км 2/0 2400 м
[Ac]
-2.2 -13.3 42 -7 -7 998.9 795.5 -3.9 +1.1
штиль 0 16 км ясно -3.3 -13.9 44 -4 -4 998.1 795.0
З 1 16 км ясно -5.6 -13.3 55 -9 -9 997.8 794.5
Ю 1 16 км ясно -6.1 -13.3 57 -11 -11 998.2 794.7
С 4
{5}
16 км 8/8 1650 м -2.2 -7.2 69 -10 -10 997.7 795.3
СЗ 2 16 км 10/10 1080 м -2.2 -6.7 71 -8 -8 998.4 795.5
СЗ 3
{6}
16 км 10/10 1650 м -2.8 -8.9 63 -10 -10 998.9 795.5 -7.2 -1.1
СЗ 3
{5}
16 км 10/10 1650 м -3.3 -8.3 68 -10 -10 999.4 795.5
СЗ 3
{4}
16 км 10/10 1950 м -3.3 -10.0 60 -10 -10 1000.7 796.1
СЗ 3
{5}
16 км 10/8 1650 м
[Ac]
-3.3 -10.6 57 -11 -11 1001.0 796.4
СЗ 3
{4}
16 км 10/0 3300 м
[Ac]
-3.9 -10.0 63 -11 -11 1001.8 796.6
СЗ 3 16 км 8/0 3300 м
[Ac]
-3.3 -10.0 60 -10 -10 1002.9 797.4
СЗ 3 16 км 10/0 3000 м
[Ac]
-2.2 -10.6 53 -9 -8 1002.3 797.4 -3.9 -2.2
С 2 16 км 5/0 3000 м
[Ac]
-2.2 -10.0 55 -8 -6 1001.7 796.9
С 2 16 км 10/10 1950 м -2.2 -11.7 48 -8 -8 1001.6 796.4
С 3 16 км 10/10 1350 м -2.8 -11.1 53 -10 -10 1001.6 796.1
СВ 2
{4}
3 км слабый снег 10/10 780 м -7.2 -10.0 80 -15 -15 796.9
СВ 2 2 км слабый снег ?/? -8.0 -11.0 79 -16 -16 796.9
СВ 2
{4}
1 км слабый снег, дымка ?/? -7.8 -10.0 84 -15 -15 1003.1 796.9
СВ 2 2 км слабый снег, дымка 10/10 570 м -8.3 -10.0 88 -16 -16 797.2
СВ 2 4 км слабый снег, дымка 10/10 810 м -8.3 -10.6 83 -15 -15 797.4
СВ 2 5 км слабый снег, дымка 10/10 1050 м -9.0 -11.0 85 -16 -16 797.4
В 2 5 км слабый снег, дымка 10/10 1110 м -8.9 -11.1 84 -16 -16 1004.3 797.4
Местоположение метеостанции Cheyenne Airport: широта 41.1579 долгота -104.8081 высота над уровнем моря 1864 м.
В архиве по умолчанию представлена погода в Шайенне за последние 1-2 суток. Обновление информации о фактической погоде в базе происходит ежечасно! Архивные данные за месяц целиком и за предыдущие месяцы Вы можете получить, выбрав интересующий диапазон дат из раскрывающегося списка и нажав кнопку "Ввод!".
Внимание! Архив погоды МЕТАР в базе сайта по станциям, не включенным в климатический монитор, хранится не более 60 дней. Нет смысла пытаться выбрать более раннюю дату.
*Определитесь, кто Вы:
Внимание! Время в таблицах - местное (без учета летнего времени). Для получения всемирного времени необходимо вычесть поправку, которая равна -7 ч.
Смотрите также архив погоды в соседних городах и на ближайших метеорологических станциях:
Партнеры нашего сайта:      
Пояснения к столбцам:
  • Ветер - указаны скорость ветра в м/с - средняя за 10 мин, порывы в срок и между сроками (в фигурных скобках) и направление, откуда дует ветер: С - северный,
  • СВ - северо-восточный, В - восточный, ЮВ - юго-восточный, Ю - южный, ЮЗ - юго-западный, З - западный, СЗ - северо-западный.
  • Видимость - горизонтальная дальность видимости в метрах или километрах. При видимости от 1 до 10 км при отсутствии осадков обычно наблюдается дымка, при ухудшении видимости до 1 км и менее - туман. В сухую погоду видимость может ухудшаться дымом, пылью или мглою.
  • Явления - указаны атмосферные явления, наблюдавшиеся в срок или в последний час перед сроком; фигурными скобками обозначены явления, наблюдавшиеся между сроками (за 1-3 часа до срока); квадратными скобками обозначены град или гололедные отложения с указанием их диаметра в мм.
  • Облачность - указаны через наклонную черту общая и нижняя облачность в баллах и высота нижней границы облаков в метрах; квадратными скобками обозначены формы облаков: Ci - перистые, Cs - перисто-слоистые, Cc - перисто-кучевые, Ac - высококучевые, As - высокослоистые, Sc - слоисто-кучевые, Ns - слоисто-дождевые, Cu - кучевые, Cb - кучево-дождевые. Подробнее классификацию облаков см. в Атласе облаков (PDF).
  • T - Температура воздуха - температура, измеренная на высоте 2 м над землей.
  • Td - Температура точки росы - температура, при понижении до которой содержащийся в воздухе водяной пар достигнет насыщения.
  • f - Относительная влажность воздуха - влажноcть воздуха, измеренная на высоте 2 м над землей.
  • Te - Эффективная температура - температура, которую ощущает одетый по сезону человек в тени. Характеристика душности погоды. При расчете учитывается влияние влажности воздуха и скорости ветра на теплоощущения человека.
  • Tes - Эффективная температура на солнце - температура, которую ощущает человек, с поправкой на солнечный нагрев. Характеристика знойности погоды. Зависит от высоты солнца над горизонтом, облачности и скорости ветра. Ночью, в пасмурную погоду, а также при ветре 12 м/с и более поправка равна нулю.
  • P - Атмосферное давление - приведенное к уровню моря атмосферное давление.
  • Po - Атмосферное давление - измеренное на уровне метеостанции атмосферное давление.
  • Tmin - Минимальная температура - минимум температуры воздуха на высоте 2 м над землей.
  • Tmax - Максимальная температура - максимум температуры воздуха на высоте 2 м над землей.
  • R - Количество осадков - Количество выпавших осадков за период времени, мм. При наведении курсора мыши на число - период времени, за который выпало указанное количество осадков.
  • R24 - Количество осадков - Количество выпавших осадков за 24 часа, мм.
  • S - Снежный покров - Высота снежного покрова, см. При наведении курсора мыши на число - состояние снежного покрова и степень покрытия местности в баллах.